Tracking 30922 objects as of 2-Jul-2025
HD Live streaming from Space Station
objects crossing your sky now

OBJECT A

Track OBJECT A now!
10-day predictions


NORAD ID: 57288
Int'l Code: 2023-095A
Perigee: 1,103.4 km
Apogee: 1,133.1 km
Inclination: 86.5 °
Period: 107.5 minutes
Semi major axis: 7489 km
RCS: Unknown
Launch date: July 9, 2023
Source: People's Republic of China (PRC)
Launch site: Jiuquan Satellite Launch Center, China (JSC)
Your satellite tracking list
Your tracking list is empty




NASA's NSSDC Master Catalog

Two Line Element Set (TLE):
1 57288U 23095A   25182.85741925  .00000068  00000-0  96464-4 0  9995
2 57288  86.5032 126.0861 0019831  85.7351 274.6057 13.39515385 96853
Source of the keplerian elements: AFSPC